Погода в Картахене

Колумбия     10°23′36″N   75°28′56″W
темп.,
°C
ветер,
м/с
пор.,
м/с
влажн.,
%
обл.,
%
осадки,
мм/ч
давл.,
гПа
погр.,
м
28 мая, сб
сб2801:00+28ссв4585100 0.0 1008382
04:00+27св348596 1.5 1007279
07:00+27вюв228470 1.5 1009199
10:00+29юв23715 0.1 1010513
13:00+30сз327112 0.9 1008369
16:00+29ссз547737 1.4 1006562
19:00+28ссв447899 2.0 1008390
22:00+28ссв458288 0.1 1009385
29 мая, вс
вс2901:00+27с128296 0.9 1008147
04:00+27ююз127972 1.9 100767
07:00+28ююз34797 3.3 1009245
10:00+29ююз44748 0.1 1010713
13:00+28юз447667 2.7 1008629
16:00+28зсз227686 2.3 1006576
19:00+28с347999 2.4 1007561
22:00+28ссв358098 0.0 1009421
30 мая, пн
пн3001:00+27с348315 0.0 1007420
04:00+27сз338027 2.3 1007233
07:00+28ю3479100 3.7 1008257
10:00+29ююз447272 0.3 1009659
13:00+29юз6573100 0.5 1008639
16:00+28зюз4473100 0.3 1006600
19:00+28сз227555 0.3 1008558
22:00+28ссв2280100 0.3 1009348
31 мая, вт
вт3101:00+27с1181100 0.4 1008275
04:00+26юз1186100 3.8 100727
07:00+28ююз4477100 4.9 1009431
10:00+28юз5574100 1.8 1010697
13:00+28юз6674100 2.8 1008849
16:00+28зюз447499 0.0 1006688
19:00+28з3375100 0.0 1008624
22:00+27сз1278100 1.2 1010113
1 июня, ср
ср101:00+27з1278100 2.3 1009260
04:00+27з127987 0.7 1009221
07:00+27ю2278100 0.9 1010438
10:00+28ююз3376100 1.9 1010451
13:00+28зюз5474100 2.2 1009671
16:00+28з447592 0.4 1007586
19:00+28сз337486 0.4 1009546
22:00+27ссв2281100 3.0 101060